Kosmos-2014

operational
NORAD ID: 19908 Int'l Des: 1989-025 Owner: UNKS Country: SU
LEOCIRCULAR

Kosmos-2014について

説明を読み込み中...

リアルタイム位置

3D地球を読み込み中...

次回通過

高度履歴

Altitude vs Time

uPlot chart will show altitude changes over time

軌道要素

1 19908U 89025G 25278.51089769 -.00000024 00000-0 -54431-4 0 9999
2 19908 74.0114 46.6206 0012298 167.6898 264.0933 12.46285406662118
Epoch: Oct 5, 2025 • Age: 17 hours

現在のステータス

高度 1490.8 km
速度 7.12 km/s
衛星直下点 39.44°N, 37.43°W
打ち上げ日 Mar 24, 1989
運用期間 36.5 years
タイプ other

技術仕様

分類 Payload
質量 60.00 kg
乾燥質量 60.00 kg
総質量 60.00 kg
長さ 0.80 m
直径 0.80 m
スパン 0.80 m
形状 Poly
製造者 NPOPM
バスタイプ Strela-1 11F625
フェーズステータス In Orbit
所有者/国 UNKS/SU

大規模コンステレーション

Loading constellations...